Miscellaneous Local Product
Issued by NWS Hastings, NE

Home | Current Version | Previous Version | Graphics & Text | Print | Product List | Glossary On
Versions: 1 2 3 4 5 6 7 8 9 10 11 12 13 14 15 16 17 18 19 20 21 22 23 24 25 26 27 28 29 30 31 32 33 34 35 36 37 38 39 40 41 42 43 44 45 46 47 48 49 50
993
AXUS43 KGID 261702
MISGRI

GID CWA HOURLY WEATHER ROUNDUP
NATIONAL WEATHER SERVICE HASTINGS NE
1100 AM CST SUN FEB 26 2017

NOTE: "FAIR" INDICATES FEW OR NO CLOUDS BELOW 12,000 FEET WITH NO
SIGNIFICANT WEATHER AND/OR OBSTRUCTIONS TO VISIBILITY.

...SOUTH CENTRAL NEBRASKA...

CITY           SKY/WX    TMP DP  RH WIND       PRES   REMARKS
GRAND ISLAND   SUNNY     35  20  54 NW9       29.94R WCI  28
HASTINGS       SUNNY     37  18  46 W9        29.95R WCI  30
KEARNEY        SUNNY     36  14  41 W6        29.94R WCI  31
ORD            SUNNY     30  14  51 N6        29.90S WCI  24
YORK           SUNNY     36  23  60 W7        29.94S WCI  30
AURORA         SUNNY     35  20  54 W8        29.93S WCI  28
LEXINGTON      SUNNY     33  15  48 NW10      29.93R WCI  25
HOLDREGE       SUNNY     37  11  35 W8        29.93S WCI  30
HEBRON         SUNNY     42  19  38 W10       29.97S

...NEBRASKA PANHANDLE...

CITY           SKY/WX    TMP DP  RH WIND       PRES   REMARKS
CHADRON        SUNNY     19   7  59 SW9       29.86S WCI   8
ALLIANCE       SUNNY     13   6  74 W10       29.84R WCI   0
SCOTTSBLUFF    SUNNY     20   7  57 NW5       29.87R WCI  13
SIDNEY         SUNNY     27  11  51 NW14      29.86R WCI  16

...WESTERN AND NORTH CENTRAL NEBRASKA...

CITY           SKY/WX    TMP DP  RH WIND       PRES   REMARKS
VALENTINE      SUNNY     22  10  60 W15       29.86S WCI   9
AINSWORTH      SUNNY     26  16  65 W7        29.87R WCI  18
ONEILL         SUNNY     28  16  60 W7        29.90R WCI  20
BROKEN BOW     SUNNY     28  14  55 W12       29.90R WCI  18
IMPERIAL       SUNNY     32  12  43 NW12      29.93R WCI  23
NORTH PLATTE   SUNNY     31  14  49 W12       29.92R WCI  22
MCCOOK         SUNNY     37  12  35 W16       29.94R WCI  28

...EASTERN NEBRASKA...

CITY           SKY/WX    TMP DP  RH WIND       PRES   REMARKS
NORFOLK        SUNNY     27  15  61 W8        29.91R WCI  19
SO SIOUX CITY  SUNNY     28  16  60 W9        29.93R WCI  19
TEKAMAH        SUNNY     30  17  58 W9        29.95R WCI  22
COLUMBUS       SUNNY     32  19  59 NW9       29.95R WCI  24
ALBION         SUNNY     31  16  54 NW9       29.92R WCI  23
OMAHA EPPLEY   SUNNY     38  19  46 W7        29.96R WCI  33
OFFUTT AFB     SUNNY     38  19  46 W12       29.95R WCI  31
MILLARD        SUNNY     38  21  51 W3        29.96R
LINCOLN        SUNNY     38  20  48 W8        29.98R WCI  32
NEBRASKA CITY  SUNNY     44  22  42 SW13      29.96S
BEATRICE       SUNNY     44  23  44 W12       29.97S
FALLS CITY     SUNNY     47  34  60 S15       29.97S

...NORTHERN KANSAS...

CITY           SKY/WX    TMP DP  RH WIND       PRES   REMARKS
GOODLAND       SUNNY     38   7  27 E9        29.90S WCI  31
HILL CITY      SUNNY     43   9  24 N16       29.96F
PHILLIPSBURG   SUNNY     43   9  24 W13G18    29.97S
SMITH CENTER   SUNNY     43  12  28 W12       29.96F
HAYS           SUNNY     42  18  37 NE6       29.97S
RUSSELL        SUNNY     43  18  36 N9        29.96R
CONCORDIA      SUNNY     45  25  45 SW9       29.97S
SALINA         SUNNY     43  28  55 E8        29.98F
TOPEKA         CLOUDY    43  32  65 SE8       30.02S



USA.gov is the U.S. government's official web portal to all federal, state and local government web resources and services.